This demonstration page uses our WeatherBlox Daily Observations layout. Learn more.

Left ArrowRight Arrow

Hourly Observations for May 28, 2022

Temp ( °F °C ) Dew Point ( °F °C ) Humidity (%) Winds ( mph kmh ) Pressure ( in mb ) Visibility ( mi km ) Precip ( " mm )
12:53 am 00:53 Clear 67 19.4 48 8.9 51 51 WNW 3 6 29.84 1010 10 16 0.00 0.00
1:53 am 01:53 Clear 61 16.1 47 8.3 60 60 Calm 29.84 1010 10 16 0.00 0.00
2:53 am 02:53 Clear 60 15.6 47 8.3 62 62 S 5 7 29.84 1010 10 16 0.00 0.00
3:53 am 03:53 Mostly Clear 61 16.1 45 7.2 56 56 SSW 5 7 29.84 1011 10 16 0.00 0.00
4:53 am 04:53 Cloudy 62 16.7 44 6.7 52 52 SW 10 17 29.85 1011 10 16 0.00 0.00
5:53 am 05:53 Cloudy 64 17.8 45 7.2 50 50 SW 8 13 29.85 1011 10 16 0.00 0.00
6:53 am 06:53 Mostly Cloudy 63 17.2 51 10.6 65 65 S 9 15 29.85 1011 10 16 0.00 0.00
7:53 am 07:53 Cloudy 63 17.2 50 10 63 63 SSE 13 20 29.85 1011 10 16 0.00 0.00
8:53 am 08:53 Cloudy 64 17.8 50 10 60 60 SSE 15 24 29.86 1011 10 16 0.00 0.00
9:53 am 09:53 Cloudy 67 19.4 50 10 55 55 S 12 19 29.86 1011 10 16 0.00 0.00
10:53 am 10:53 Mostly Cloudy 70 21.1 48 8.9 46 46 S 17 28 29.83 1010 10 16 0.00 0.00
11:53 am 11:53 Cloudy 71 21.7 48 8.9 44 44 SSW 13 20 29.83 1010 10 16 0.00 0.00
12:53 pm 12:53 Cloudy 71 21.7 49 9.4 46 46 SSW 10 17 29.83 1010 10 16 0.00 0.00
1:53 pm 13:53 Cloudy 71 21.7 50 10 47 47 S 13 20 29.82 1010 10 16 0.00 0.00
2:53 pm 14:53 Cloudy 68 20 52 11.1 57 57 SW 6 9 29.80 1009 10 16 0.00 0.00
3:53 pm 15:53 Cloudy 71 21.7 54 12.2 55 55 S 9 15 29.78 1008 10 16 0.01 0.25
4:53 pm 16:53 Cloudy 74 23.3 52 11.1 46 46 SE 7 11 29.76 1008 10 16 0.00 0.00
5:53 pm 17:53 Mostly Cloudy 72 22.2 56 13.3 57 57 NW 3 6 29.76 1008 10 16 0.01 0.25
6:53 pm 18:53 Mostly Sunny 72 22.2 50 10 46 46 WSW 5 7 29.76 1008 10 16 0.00 0.00
7:53 pm 19:53 Sunny 69 20.6 46 7.8 44 44 WNW 12 19 29.78 1009 10 16 0.00 0.00
8:53 pm 20:53 Clear 66 18.9 43 6.1 43 43 VRB 7 11 29.82 1010 10 16 0.00 0.00
9:53 pm 21:53 Clear 65 18.3 39 3.9 39 39 W 13 20 29.82 1010 10 16 0.00 0.00
10:53 pm 22:53 Clear 62 16.7 37 2.8 40 40 WNW 7 11 29.86 1011 10 16 0.00 0.00
11:53 pm 23:53 Clear 60 15.6 36 2.2 41 41 VRB 6 9 29.88 1012 10 16 0.00 0.00

Powered by AerisWeather